This is the latest recevied weather packets stored in our database for station/object NC4M. If no packets are shown the sender has not sent any weather packets the latest 10 day(s).
| Time | Temp. | Humidity | Pressure | Rain* | Wind** | Luminosity | Snow |
|---|---|---|---|---|---|---|---|
| 1787689323 | 31.67° C | 58% | 1016.4 hPa | 0 mm | - | 117 W/m² | - |
| 1787689023 | 31.11° C | 59% | 1016.3 hPa | 0 mm | - | 386 W/m² | - |
| 1787688719 | 31.67° C | 58% | 1016.2 hPa | 0 mm | - | 109 W/m² | - |
| 1787688414 | 31.67° C | 58% | 1016.4 hPa | 0 mm | - | 165 W/m² | - |
| 1787688109 | 31.67° C | 60% | 1016.3 hPa | 0 mm | - | 262 W/m² | - |
| 1787687805 | 31.11° C | 60% | 1016.2 hPa | 0 mm | - | 98 W/m² | - |
| 1787687505 | 31.11° C | 57% | 1016.2 hPa | 0 mm | - | 349 W/m² | - |
| 1787687201 | 31.11° C | 59% | 1016.2 hPa | 0 mm | - | 92 W/m² | - |
| 1787686896 | 31.11° C | 59% | 1016.3 hPa | 0 mm | - | 91 W/m² | - |
| 1787686593 | 31.11° C | 61% | 1016.3 hPa | 0 mm | - | 96 W/m² | - |
| 1787686287 | 31.11° C | 61% | 1016.4 hPa | 0 mm | - | 92 W/m² | - |
| 1787685983 | 31.11° C | 56% | 1016.7 hPa | 0 mm | - | 132 W/m² | - |
| 1787685679 | 31.11° C | 55% | 1016.6 hPa | 0 mm | - | 106 W/m² | - |
| 1787685378 | 31.11° C | 60% | 1017.1 hPa | 0 mm | - | 151 W/m² | - |
| 1787685073 | 30.56° C | 60% | 1016.8 hPa | 0 mm | - | 164 W/m² | - |
| 1787684769 | 30.56° C | 57% | 1017 hPa | 0 mm | - | 256 W/m² | - |
| 1787684468 | 30.56° C | 58% | 1016.8 hPa | 0 mm | - | 487 W/m² | - |
| 1787684163 | 31.11° C | 56% | 1017 hPa | 0 mm | - | 131 W/m² | - |
| 1787683862 | 31.11° C | 56% | 1017.4 hPa | 0 mm | - | 114 W/m² | - |
| 1787683558 | 31.11° C | 55% | 1017.1 hPa | 0 mm | - | 311 W/m² | - |
| 1787683253 | 31.11° C | 57% | 1017 hPa | 0 mm | - | 140 W/m² | - |
| 1787682950 | 31.11° C | 58% | 1017 hPa | 0 mm | - | 106 W/m² | - |
| 1787682646 | 31.67° C | 56% | 1017.1 hPa | 0 mm | - | 125 W/m² | - |
| 1787682342 | 31.67° C | 57% | 1017.3 hPa | 0 mm | - | 852 W/m² | - |
| 1787682037 | 31.67° C | 55% | 1017.3 hPa | 0 mm | - | 854 W/m² | - |
* Rain latest hour (hover to see other rain measurements)
** Current wind speed in m/s (hover to see current wind gust speed)